+ View the NASA Portal
+ Center for Near-Earth Object Studies
IMPORTANT:
The SSD Announcement email list is now available. Major changes are coming in the near future, including possible hostname and/or URL changes. To be notified of such changes, subscribe to this email list.
Please visit
this page
for more details.
Don't show this message again
JPL Small-Body Database Browser
Search:
[
help
]
452036 (2014 OC167)
Classification:
Main-belt Asteroid
SPK-ID:
2452036
[
Ephemeris
|
Orbit Diagram
|
Orbital Elements
|
Mission Design
|
Physical Parameters
|
Discovery Circumstances
]
[ show orbit diagram ]
Orbital Elements at Epoch 2458600.5 (2019-Apr-27.0) TDB
Reference:
JPL 12
(heliocentric ecliptic J2000)
Element
Value
Uncertainty (1-sigma)
Units
e
.01137136550944232
6.5008e-08
a
2.671611882386706
3.806e-08
au
q
2.641232007172718
1.5895e-07
au
i
6.076454266399252
7.3634e-06
deg
node
29.06544394406762
6.0427e-05
deg
peri
268.1486554146334
0.00035939
deg
M
39.77085322647106
0.00035657
deg
t
p
2458424.293922336121
(2018-Nov-01.79392234)
0.0015783
TDB
period
1594.991880052886
4.37
3.4084e-05
9.332e-08
d
yr
n
.2257064781972828
4.8232e-09
deg/d
Q
2.701991757600695
3.8493e-08
au
Orbit Determination Parameters
# obs. used (total)
111
data-arc span
4786 days (13.10 yr)
first obs. used
2006-09-24
last obs. used
2019-11-01
planetary ephem.
DE431
SB-pert. ephem.
SB431-N16
condition code
0
norm. resid. RMS
.59004
source
ORB
producer
Otto Matic
solution date
2019-Dec-05 02:31:50
Additional Information
Earth MOID
= 1.63354 au
Jupiter MOID
= 2.29019 au
T_jup
= 3.373
[ show covariance matrix ]
[
Ephemeris
|
Orbit Diagram
|
Orbital Elements
|
Mission Design
|
Physical Parameters
|
Discovery Circumstances
]
Physical Parameter Table
Parameter
Symbol
Value
Units
Sigma
Reference
Notes
absolute magnitude
H
17.5
n/a
MPO361088
452036 (2014 OC167)
Discovered 2006-Sep-24 by Spacewatch at Kitt Peak
Reference:
Last Updated:
2015-11-30
Alternate Designations
2014 OC167
= 2006 SL117
[
Ephemeris
|
Orbit Diagram
|
Orbital Elements
|
Mission Design
|
Physical Parameters
|
Discovery Circumstances
]
2019-Dec-10 19:06 UT
(server date/time)
Site Manager:
Ryan S. Park
Webmaster
:
Alan B. Chamberlin